Location: Heilwood
(40.6210°N, 78.9150°W)
Time: 10:12:58
(UTC-04:00)

BREEZE-M DEB (TANK) - Visible Passes

Search period start: 22 September 2014 00:00
Search period end: 02 October 2014 00:00
Orbit: 276 x 16063 km, 49.5° (Epoch: 21 September)

Date Brightness Start Highest point End Pass type
(mag) Time Alt. Az. Time Alt. Az. Time Alt. Az.
22 Sep 8.4 00:00:00 24° E 23:59:45 25° E 00:08:39 10° E visible
22 Sep 7.4 02:31:06 10° NW 04:46:50 53° WSW 05:15:14 10° S visible
22 Sep 8.3 20:48:35 10° WSW 22:42:37 78° N 00:25:56 10° E visible
23 Sep 7.4 02:53:51 10° NW 05:01:27 47° W 05:30:05 10° SSW visible
23 Sep 8.2 21:05:53 10° WSW 23:14:58 78° N 00:42:59 10° ESE visible
24 Sep 7.4 03:16:50 10° NW 05:15:31 41° W 05:44:37 10° SSW visible
24 Sep 8.1 21:23:25 10° WSW 23:44:51 78° NNE 00:59:48 10° ESE visible
25 Sep 7.4 03:40:08 10° NW 05:29:04 36° W 05:58:47 10° SSW visible
25 Sep 8.4 16:31:13 10° S 17:15:53 56° E 19:37:23 10° ENE visible
25 Sep 8.1 21:41:13 10° W 00:11:29 80° NNE 01:16:24 10° ESE visible
26 Sep 7.5 04:03:49 10° NW 05:42:06 31° W 06:12:26 10° SW visible
26 Sep 8.5 16:46:06 10° S 17:30:47 61° ESE 19:57:16 10° ENE visible
26 Sep 8.0 21:59:17 10° W 00:35:30 83° NNE 01:32:47 10° ESE visible
27 Sep 7.6 04:28:08 10° NW 05:54:37 26° W 06:25:22 10° SW visible
27 Sep 8.6 17:01:10 10° SSW 17:46:22 67° ESE 20:16:51 10° ENE visible
27 Sep 7.9 22:17:39 10° W 00:57:32 86° NE 01:48:57 10° SE visible
28 Sep 7.6 04:53:27 10° NW 06:06:38 21° WNW 06:37:14 10° WSW visible
28 Sep 8.7 17:16:23 10° SSW 18:02:41 72° ESE 20:36:11 10° ENE visible
28 Sep 7.8 22:36:18 10° W 01:18:02 90° NE 02:04:55 10° SE visible
29 Sep 7.7 05:20:34 10° NW 06:18:08 17° WNW 06:47:14 10° WSW visible
29 Sep 8.8 17:31:44 10° SSW 18:19:46 77° ESE 20:55:13 10° ENE visible
29 Sep 7.8 22:55:14 10° WNW 01:37:19 86° SW 02:20:42 10° SE visible
30 Sep 7.9 05:51:32 10° NW 06:29:08 13° WNW 06:53:12 10° W visible
30 Sep 8.8 17:47:14 10° SSW 18:37:43 82° SE 21:13:58 10° ENE visible
30 Sep 7.7 23:14:29 10° WNW 01:55:35 81° SW 02:36:16 10° SSE visible
01 Oct 8.7 18:02:51 10° SW 18:56:39 87° SE 21:32:26 10° ENE visible
01 Oct 9.9 23:33:59 10° WNW 00:00:00 25° WNW 00:00:00 25° WNW visible
